Weather in Dolzhitsy

Russia / Pskov Oblast     58°30′31″N   29°06′51″E
temp.,
°C
wind,
m/s
gust,
m/s
humid.,
%
clouds,
%
prec.,
mm/h
press.,
hPa
HPBL,
m
14 may, fri
fri1400:00+12se3878100 0.0 1011580
03:00+8se279821 0.0 1011211
06:00+8se27957 0.0 1011236
09:00+13sse47648 0.0 1011947
12:00+16se6956100 0.0 10101628
15:00+17se586170 0.0 10101295
18:00+16sse47696 0.3 10091122
21:00+13se38795 0.4 1009169
15 may, sat
sat1500:00+10se239499 0.0 100955
03:00+12ese2784100 0.0 1008212
06:00+11ese279215 0.0 1007186
09:00+16se356949 0.0 1007526
12:00+20se3357100 0.1 10061257
15:00+21se225588 1.0 10051498
18:00+19wsw226590 1.1 1005241
21:00+15nne228886 3.7 100543
16 may, sun
sun1600:00+12nne249399 5.2 100576
03:00+12nw1193100 5.3 100613
06:00+11nnw129670 0.0 100651
09:00+14n129199 0.1 1007288
12:00+15wnw129199 0.1 1008136
15:00+18wnw227436 0.3 1008347
18:00+19nnw237076 1.8 1008503
21:00+14n118985 2.6 100911
17 may, mon
mon1700:00+12e229692 0.0 101042
03:00+11ese22965 0.0 101034
06:00+11ese24965 0.0 1010103
09:00+16ese358116 0.0 1010396
12:00+21se465516 0.0 10101590
15:00+22se5750100 0.1 10082066
18:00+22se475795 0.0 10071793
21:00+17ese3977100 0.1 1006213
18 may, tue
tue1800:00+14nw2398100 2.2 1005104
03:00+15ese51396100 8.9 10011013
06:00+13wnw31097100 4.4 1002482
09:00+13wsw3697100 4.5 1003515
12:00+13wsw3593100 0.1 1006557
15:00+15wsw348296 0.3 1007665
18:00+16wsw237186 0.1 1007579
21:00+13sse118494 0.1 100810